Regional Weather Roundup
Issued by NWS

Home | Current Version | Previous Version | Text Only | Print | Product List | Glossary Off
Versions: 1 2 3 4 5 6 7 8 9 10 11 12 13 14 15 16 17 18 19 20 21 22 23 24 25 26 27 28 29 30 31 32 33 34 35 36 37 38 39 40 41 42 43 44 45 46 47 48 49 50

000
ASUS43 KLMK 060102
RWRKY
KENTUCKY REGIONAL WEATHER ROUNDUP
NATIONAL WEATHER SERVICE LOUISVILLE KY
900 PM EDT TUE MAY 05 2015

NOTE "FAIR" INDICATES FEW OR NO CLOUDS BELOW 12,000 FEET
WITH NO SIGNIFICANT WEATHER AND/OR OBSTRUCTIONS TO VISIBILITY.

KYZ001>023-026-027-061>063-070>075-060200-
WESTERN AND SOUTH CENTRAL KENTUCKY

CITY           SKY/WX    TMP DP  RH WIND       PRES   REMARKS
PADUCAH        CLEAR     76  54  46 SE5       30.13R
HENDERSON      CLEAR     73  48  40 S3        30.14R
OWENSBORO      CLEAR     76  55  47 S5        30.16R
HOPKINSVILLE   NOT AVBL
BOWLING GREEN  CLEAR     75  55  49 CALM      30.18R
GLASGOW        NOT AVBL
$$

KYZ024-025-028>034-038-045-046-053-060200-
NORTH CENTRAL KENTUCKY

CITY           SKY/WX    TMP DP  RH WIND       PRES   REMARKS
LOUISVILLE/SDF PTCLDY    80  51  36 SW6       30.17R
LOUISVILLE/LOU CLEAR     78  51  38 CALM      30.18R
FORT KNOX      CLEAR     70  56  60 CALM      30.17R
$$

KYZ035>037-039>044-047>052-055>060-089>105-060200-
NORTHEAST KENTUCKY

CITY           SKY/WX    TMP DP  RH WIND       PRES   REMARKS
LEXINGTON      CLEAR     75  54  47 S3        30.21R
COVINGTON      PTCLDY    73  53  49 S3        30.19R
FRANKFORT      CLEAR     70  55  59 CALM      30.19R
$$

KYZ054-064>069-076>088-106>120-060200-
SOUTHEAST KENTUCKY

CITY           SKY/WX    TMP DP  RH WIND       PRES   REMARKS
JACKSON        PTCLDY    73  50  44 CALM      30.22S
LONDON         CLEAR     74  50  42 CALM      30.21R
SOMERSET       NOT AVBL
MIDDLESBORO    CLEAR     69  56  64 CALM      30.22R
MONTICELLO     CLEAR     68  56  65 CALM      30.23R
$$



USA.gov is the U.S. government's official web portal to all federal, state and local government web resources and services.